Find Starlink 6244

NORAD ID: 56548 Int'l Des: 2023-065 Owner: SPXS Country: US Constellation: starlink operational
LEOCIRCULAR

現在のビュー

3D地球を読み込み中...

About Starlink 6244

Starlink 6244 (NORAD 56548) is a starlink constellation satellite (v1.5) launched May 14, 2023 by SPXS of US. It operates in LEO, CIRCULAR orbit with a mass of 305.00 kg.

Starlink 6244について

説明を読み込み中...

次回通過

Passes for default location (London). Set your location on the main map for personalized predictions.

高度履歴

Loading altitude history...

軌道要素

1 56548U 23065AX 26194.19685774 -.00000430 00000-0 -60967-5 0 9995
2 56548 43.0002 235.0590 0001446 275.1560 84.9127 15.27581953175666
Epoch: Jul 13, 2026 • Age: 26 hours

現在のステータス

高度 495.2 km
遠地点 / 近地点 N/A
速度 7.62 km/s
衛星直下点 -42.55°S, 112.8°E
打ち上げ日 May 14, 2023
運用期間 3.1 years
タイプ internet

技術仕様

分類 Payload
質量 305.00 kg
乾燥質量 290.00 kg
総質量 305.00 kg
長さ 0.20 m
直径 2.80 m
スパン 9.00 m
形状 Box + pan
製造者 SPXS
バスタイプ Starlink
フェーズステータス In Orbit
所有者/国 SPXS/US

Most Searched